Location: Jetmore Motorplex
(37.9889°N, 99.8876°W)
Time: 22:24:04
(UTC+00:00)

STARLINK-45 - Pass Details

Date: 17 February 2020
Orbit: 529 x 530 km, 53.0° (Epoch: 05 April)

Event Time Altitude Azimuth Distance (km) Brightness Sun altitude
Rises 01:53:39 0° 229° (SW) 2,653 7.9 -19.3°
Reaches altitude 10° 01:55:51 10° 230° (SW) 1,767 6.9 -19.7°
Maximum altitude 01:59:52 83° 318° (NW) 537 3.5 -20.5°
Enters shadow 02:00:41 55° 39° (NE) 639 3.6 -20.6°
